Preview of NWS' New Version of Forecast
This preview is not operational and should not be used for support decisions.
Latest weather observations around

Missoula, Missoula International Airport (KMSO)

Using International System of Units (Switch to English Units)
Date/ Time (MDT) Wind (kph) Vis. (km) Weather Sky Cond. Temp (°C) Rel. Humidity Wind Chill (°C) Heat Index (°C) Pressure Precip. (cm)
Air Dwpt 6 hour Altimeter (hPa) Sea level (hPa) 1 hr 3 hr 6 hr
Max Min
Apr 20 19:53 NW 15 16.09 Cloudy FEW045 SCT050 OVC090 10 6     74%     1010.5 1010.9      
Apr 20 18:53 NNW 17 16.09 Cloudy FEW027 SCT032 OVC041 11 6     69%     1010.2 1010.3 0    
Apr 20 18:43 N 18 16.09 Cloudy SCT027 BKN032 OVC041 11 6     69%     1010.2   0    
Apr 20 18:34 NNW 18 16.09 Cloudy BKN028 BKN032 OVC041 11 6     69%     1010.2   0    
Apr 20 18:00 N 17 16.09 Cloudy SCT021 BKN034 OVC060 11 6     71%     1009.8   0    
Apr 20 17:53 NNW 11 16.09 Light Rain BKN021 BKN030 OVC055 11 7     77%     1009.8 1010 0   0
Apr 20 17:23 NNW 17 16.09 Light Rain SCT019 BKN038 OVC050 11 7     77%     1009.8   0    
Apr 20 16:53 NNW 15 16.09 Light Rain SCT042 BKN055 OVC070 11 7     77%     1009.5 1009.5 0    
Apr 20 16:05 N 21 16.09 Light Rain BKN035 BKN048 OVC060 12 6     69%     1008.8   0    
Apr 20 15:53   16.09 Light Rain BKN037 BKN049 OVC060 12 6     69%     1008.8 1008.6 0    
Apr 20 14:53   16.09 Cloudy BKN050 OVC060 13 7     69%     1008.8 1008.4 0 0  
Apr 20 14:08 NW 18 16.09 Light Rain FEW022 OVC050 12 8     77%     1008.8   0    
Apr 20 13:53 NW 21 16.09 Light Rain BKN050 OVC065 12 8     77%     1008.8 1008.5 0    
Apr 20 12:53 NW 15 16.09 Cloudy OVC065 12 7     74%     1008.5 1008.4 0    
Apr 20 11:53 NW 21 16.09 Light Rain FEW026 OVC060 11 7     79%     1008.8 1008.8 0   0
Apr 20 11:13 NW 17 16.09 Light Rain FEW024 BKN041 OVC050 11 8     83%     1008.8   0    
Apr 20 10:53 WNW 17 16.09 Cloudy SCT038 BKN050 OVC065 11 8     80%     1008.5 1008.4 0    
Apr 20 10:08 NW 13 16.09 Cloudy SCT028 BKN037 OVC055 10 8     86%     1008.8   0    
Apr 20 09:53 NW 17 16.09 Light Rain BKN027 OVC034 9 8     90% 7   1008.8 1008.7 0    
Apr 20 09:01 NW 13 16.09 Cloudy BKN024 OVC038 9 8     90% 7   1009.2   0    
Apr 20 08:53 NNW 5 16.09 Light Rain SCT018 SCT024 OVC037 9 8     90% 9   1009.2 1008.8 0 0  
Apr 20 08:30 WNW 9 14.48 Cloudy BKN016 OVC032 9 8     90% 8   1009.2   0    
Apr 20 08:18 WSW 8 11.27 Cloudy FEW004 BKN014 OVC032 9 8     93% 8   1009.2   0    
Apr 20 08:08 NW 5 14.48 Cloudy SCT004 SCT015 OVC032 9 8     93% 9   1009.2   0    
Apr 20 07:53 WNW 8 8.05 Light Rain and Fog/Mist SCT004 BKN012 OVC018 9 8     93% 8   1008.8 1008.6 0    
Apr 20 07:41 W 11 6.44 Fog/Mist SCT004 BKN010 OVC034 9 8     93% 7   1009.2        
Apr 20 07:15 NNW 9 9.66 Fog/Mist FEW006 BKN016 OVC028 9 8     90% 8   1008.8        
Apr 20 07:03 NNW 9 16.09 Cloudy SCT007 BKN014 OVC019 9 8     90% 8   1008.8        
Apr 20 06:53 NNW 9 16.09 Cloudy FEW003 SCT007 OVC012 9 8     90% 8   1008.8 1008.6      
Apr 20 06:04 Calm 16.09 Cloudy FEW006 BKN012 OVC060 9 8     90%     1009.5        
Apr 20 05:53 Calm 16.09 Cloudy FEW006 SCT014 OVC060 9 8     90%     1009.5 1008.6 0   1
Apr 20 05:39   16.09 Light Rain FEW007 OVC055 9 8     93%     1009.5   0    
Apr 20 04:53 WNW 5 16.09 Light Rain FEW044 OVC060 9 8     93% 9   1009.5 1008.6 0    
Apr 20 04:12 Calm 14.48 Light Rain FEW005 SCT030 OVC045 10 9     93%     1009.8   0    
Apr 20 03:53 N 5 4.83 Rain and Fog/Mist FEW019 BKN036 OVC048 10 8     89%     1009.8 1008.7 0    
Apr 20 03:25 Calm 6.44 Rain and Fog/Mist FEW019 BKN035 OVC048 10 9     93%     1010.2   0    
Apr 20 02:53 Calm 6.44 Rain and Fog/Mist SCT041 OVC049 10 8     89%     1010.2 1009.2 0 0  
Apr 20 01:53 Calm 14.48 Light Rain OVC055 10 9     93%     1010.5 1009.6 0    
Apr 20 00:53 NW 8 8.05 Light Rain and Fog/Mist OVC055 11 8     86%     1010.2 1009.4 0    
Apr 19 23:53 NW 11 16.09 Light Rain OVC065 11 9     89%     1010.2 1009.6 0   0
Apr 19 22:53 WNW 18 16.09 Cloudy FEW039 BKN100 OVC110 11 9     89%     1009.8 1009.7 0    
Apr 19 21:53   6.44 Rain BKN050 BKN075 OVC090 12 9     83%     1010.2 1010.3 0    
Apr 19 20:53 NW 17 16.09 Cloudy FEW060 SCT080 OVC100 13 9     75%     1008.5 1008.4 0 0  
Apr 19 19:53 N 13 16.09 Light Rain OVC095 16 8     62%     1008.1 1007.9 0    
Apr 19 18:53 N 15 16.09 Cloudy OVC085 15 9     67%     1009.2 1009 0    
Apr 19 18:31   16.09 Cloudy FEW055 SCT070 OVC085 16 9     67%     1009.5   0    
Apr 19 18:11   9.66 Thunderstorms and Rain FEW050 OVC080 15 10     72%     1009.5   0    
Apr 19 17:53   16.09 Light Rain BKN080 OVC100 18 8     52%     1007.8 1007.5 0   0
Apr 19 16:53 N 22 16.09 Mostly Cloudy BKN095 21 7     42%     1008.5 1007.6      
Apr 19 15:53 NNW 15 16.09 Mostly Cloudy BKN090 BKN110 21 6     36%     1009.2 1008.5      
Apr 19 14:53 NW 11 16.09 Mostly Cloudy BKN090 BKN110 19 7     45%     1010.5 1009.7      
Apr 19 13:53 NW 17 16.09 Mostly Cloudy BKN090 BKN120 21 7     41%     1011.2 1010.4      
Apr 19 12:53 Calm 16.09 Clear CLR 19 6     43%     1012.5 1011.7      
Apr 19 11:53 Calm 16.09 Clear CLR 16 7     57%     1014.2 1013.8     0
Apr 19 10:53 W 9 16.09 Partly Cloudy FEW080 SCT095 12 7     74%     1015.6 1015.3      
Apr 19 09:53 W 5 16.09 Mostly Cloudy BKN080 BKN110 9 7     83% 9   1016.3 1016.1      
Apr 19 08:53 NNW 5 16.09 Cloudy OVC075 8 6     83% 8   1016.9 1016.8 0 0  
Apr 19 07:53 W 8 16.09 Light Rain BKN075 OVC090 7 6     90% 6   1016.9 1016.9 0    
Apr 19 06:53 Calm 16.09 Light Rain FEW055 SCT070 OVC090 7 5     89%     1016.9 1016.6 0    
Apr 19 05:53 Calm 16.09 Mostly Cloudy BKN080 BKN110 6 3     82%     1017.3 1017 0   0
Apr 19 04:53 Calm 16.09 Cloudy OVC080 8 3     73%     1018 1017.4      
Apr 19 03:53 Calm 16.09 Partly Cloudy SCT075 7 3     76%     1017.6 1017.4      
Apr 19 02:53 Calm 16.09 Clear CLR 7 3     76%     1018 1017.7      
Apr 19 01:53 Calm 16.09 Clear CLR 8 3     71%     1018.3 1017.9      
Apr 19 00:53 NNW 13 16.09 Clear CLR 9 3     66% 7   1018.3 1018      
Apr 18 23:53 NNW 9 16.09 Clear CLR 10 4     66%     1018.6 1018.6      
Apr 18 22:53 N 13 16.09 Clear CLR 12 4     59%     1019.3 1019.6      
Apr 18 21:53 NW 9 16.09 Clear CLR 14 4     51%     1019.7 1019.8      
Apr 18 20:53 N 9 16.09 Cloudy BKN070 OVC095 15 4     47%     1019.7 1020.1      
Apr 18 19:53 WNW 17 16.09 Cloudy OVC070 17 3     40%     1019.7 1020.2      
Apr 18 18:53 WNW 26 16.09 Mostly Cloudy BKN080 BKN100 19 3     34%     1020 1020.4      
Apr 18 17:53   16.09 Mostly Cloudy SCT080 BKN100 19 2     32%     1020 1020.4      
Apr 18 16:53 NW 21 16.09 Cloudy OVC080 19 2     33%     1020.7 1021.1      
Apr 18 15:53 N 13 16.09 Partly Cloudy SCT085 18 2     34%     1021.7 1022.2      
Apr 18 14:53 9 16.09 Cloudy BKN085 OVC100 18 2     34%     1022.7 1023.1      
Apr 18 13:53 NNW 8 16.09 Partly Cloudy SCT110 17 1     34%     1023.4 1023.8      
Apr 18 12:53 ENE 9 16.09 Clear CLR 16 1     36%     1024.1 1024.6      
Apr 18 11:53 5 16.09 Clear CLR 12 1     47%     1025.4 1026      
Apr 18 10:53 Calm 16.09 Mostly Cloudy BKN090 9 2     61%     1025.7 1027      
Apr 18 09:53 Calm 16.09 Cloudy OVC090 7 1     67%     1026.8 1027.9      
Apr 18 08:53 Calm 16.09 Clear CLR 3 1     82%     1027.1 1028.6      
Apr 18 07:53 ESE 5 16.09 Clear CLR 1 -1     88% -1   1026.8 1028.3      
Apr 18 06:53 Calm 16.09 Clear CLR -1 -3     85%     1026.8 1028.5      
Apr 18 05:53 Calm 16.09 Clear CLR 0 -2     85%     1026.8 1027.9      
Apr 18 04:53 Calm 16.09 Clear CLR 1 -2     79%     1026.4 1027.8      
Apr 18 03:53 Calm 16.09 Clear CLR 2 -2     78%     1026.4 1027.7      
Apr 18 02:53 Calm 16.09 Clear CLR 2 -1     79%     1026.4 1027.5      
Apr 18 01:53 NNW 9 16.09 Partly Cloudy SCT050 3 -1     76% 0   1026.4 1027.5      
Apr 18 00:53 ESE 5 16.09 Clear CLR 4 -1     72% 3   1026.1 1027.2      
Apr 17 23:53 NW 5 16.09 Clear CLR 6 -1     64% 5   1025.4 1026.5      
Apr 17 22:53 NW 15 16.09 Clear CLR 5 -1     67% 2   1025.1 1026.4      
Apr 17 21:53 NW 11 16.09 Clear CLR 7 -1     60% 4   1024.1 1025.5      
Apr 17 20:53 WNW 18 16.09 Clear CLR 8 -1     55% 5   1023 1024.3      
Apr 17 19:53   16.09 Mostly Cloudy BKN065 11 -1     44%     1023 1023.8      
May 14 10:53 S 5 16.09 Clear CLR 14 6     55%     1020.3 1019.6      
May 14 06:53 SSE 5 16.09 Clear CLR 6 3     82% 5   1020.7 1020.5      
May 12 22:53 Calm 16.09 Clear CLR 11 3     59%     1014.9 1014.9      
May 12 18:53 N 15 16.09 Clear CLR 19 3     34%     1013.6 1013.5      
May 11 17:53   16.09 Mostly Clear FEW060 13 7     66%     1017.6 1017.8     0
Jun 11 20:53   16.09 Clear   18 2     34%     1009.8 1009.3      
Jun 11 14:53 W 8 16.09 Clear CLR 18 -2     25%     1012.2 1012.4      
Jun 10 12:13 8 9.66 Light Rain FEW035 BKN043 OVC055 11 5     66%     1007.5   0    
Jun 10 08:53 S 11 16.09 Clear CLR 11 5     68%     1007.5 1007.1      
Jun 09 13:53 11 16.09 Light Rain FEW026 SCT037 BKN047 14 9     72%     1009.2 1008.7 0    
Jun 08 21:53   16.09 Mostly Clear FEW120 18 11     63%     1007.5 1005.9      
Jun 07 23:53 E 17 16.09 Clear CLR 21 12     57%     1010.5 1008.2      
Jun 07 09:53 Calm 16.09 Clear CLR 19 11     61%     1015.6 1013.8      
Jun 06 01:53 N 8 16.09 Clear CLR 8 5     80% 7   1021.7 1021.1